Bahamas Celebration — C6XJ3 — position and weather

sailwx.info

Track history (hours):
 
Tides and Currents Weather Stations Pressure Air Temp Water Temp Dewpoint Dewpoint Depression Visibility Wind Speed Wind Dir Waves Ship Positions

Bahamas Celebration

Last reported at 2014-Oct-24 22:19 UTC. Time now 2014-Oct-25 07:47 UTC.
Position N 26°46' W 080°03'.

Length 202 m; draft 6.1 m.

Type: Passenger vessel. MMSI: 311011300.

Date/timePositionNaut miles runAvg speedWind from/ knotsBaromVisibWave heightAir tempDewpointWater temp
2014-Oct-24 22:19N 26°46' W 080°03'0 0.0
2014-Oct-24 21:13N 26°46' W 080°03'0 0.0
2014-Oct-24 20:31N 26°46' W 080°03'2 0.2
2014-Oct-24 10:33N 26°45' W 080°01'9 9.4
2014-Oct-24 09:33N 26°40' W 079°53'5 4.8
2014-Oct-24 08:34N 26°38' W 079°48'7 7.3
2014-Oct-24 07:33N 26°34' W 079°41'9 8.7
2014-Oct-24 06:33N 26°28' W 079°34'20 0.7
2014-Oct-23 00:28N 26°42' W 079°51'12 5.8
2014-Oct-22 22:22N 26°46' W 080°03'0 0.0
2014-Oct-22 20:25N 26°46' W 080°03'0 0.0
2014-Oct-22 19:28N 26°46' W 080°03'0 0.0
2014-Oct-22 18:22N 26°46' W 080°03'0 0.0
2014-Oct-22 17:22N 26°46' W 080°03'0 0.0
2014-Oct-22 16:25N 26°46' W 080°03'0 0.0
2014-Oct-22 15:31N 26°46' W 080°03'0 0.0
2014-Oct-22 14:28N 26°46' W 080°03'0 0.0
2014-Oct-22 13:31N 26°46' W 080°03'0 0.0
2014-Oct-22 12:31N 26°46' W 080°03'0 0.0
2014-Oct-22 11:19N 26°46' W 080°03'2 2.9
2014-Oct-22 10:33N 26°46' W 080°01'8 8.0
2014-Oct-22 09:33N 26°41' W 079°54'8 7.5
2014-Oct-22 08:33N 26°38' W 079°46'7 6.5
2014-Oct-22 07:32N 26°35' W 079°39'6 5.5
2014-Oct-22 06:32N 26°34' W 079°33'12 0.4
2014-Oct-21 02:11N 26°42' W 079°44'2 2.5
2014-Oct-21 01:19N 26°44' W 079°45'16 5.8
2014-Oct-20 22:33N 26°46' W 080°02'1 0.2
2014-Oct-20 18:33N 26°46' W 080°03'0 0.0
2014-Oct-20 17:09N 26°46' W 080°03'0 0.0
2014-Oct-20 16:18N 26°46' W 080°03'0 0.0
2014-Oct-20 15:21N 26°46' W 080°03'0 0.0
2014-Oct-20 14:33N 26°46' W 080°03'0 0.0
2014-Oct-20 13:21N 26°46' W 080°03'0 0.0
2014-Oct-20 12:33N 26°46' W 080°03'0 0.0
2014-Oct-20 11:33N 26°46' W 080°03'2 2.4
2014-Oct-20 10:32N 26°45' W 080°01'8 8.6
2014-Oct-20 09:33N 26°41' W 079°53'7 7.1
2014-Oct-20 08:33N 26°39' W 079°45'7 7.3
2014-Oct-20 07:32N 26°37' W 079°37'14 0.4
2014-Oct-19 00:29N 26°45' W 079°50'11 6.0
2014-Oct-18 22:33N 26°46' W 080°03'0 0.2
2014-Oct-18 20:26N 26°46' W 080°03'0 0.0
2014-Oct-18 19:34N 26°46' W 080°03'0 0.0
2014-Oct-18 17:15N 26°46' W 080°03'0 0.0
2014-Oct-18 16:33N 26°46' W 080°03'0 0.0
2014-Oct-18 15:32N 26°46' W 080°03'0 0.0
2014-Oct-18 14:25N 26°46' W 080°03'0 0.0
2014-Oct-18 13:32N 26°46' W 080°03'0 0.0
2014-Oct-18 12:33N 26°46' W 080°03'0 0.0
2014-Oct-18 11:33N 26°46' W 080°03'5 4.9
2014-Oct-18 10:33N 26°44' W 079°58'7 6.8
2014-Oct-18 09:34N 26°40' W 079°52'7 6.6
2014-Oct-18 08:33N 26°37' W 079°45'7 6.9
2014-Oct-18 07:33N 26°35' W 079°38'19 0.6
2014-Oct-17 00:08N 26°46' W 079°56'8 0.6
2014-Oct-16 09:29N 26°39' W 079°51'6 6.5
2014-Oct-16 08:33N 26°36' W 079°45'7 6.6
2014-Oct-16 07:33N 26°32' W 079°39'6 5.8
2014-Oct-16 06:31N 26°30' W 079°33'30 1.0
2014-Oct-14 23:06N 26°47' W 080°01'  
Track history (hours):
 
Tides and Currents Weather Stations Pressure Air Temp Water Temp Dewpoint Dewpoint Depression Visibility Wind Speed Wind Dir Waves Ship Positions

Bahamas Celebration

Last reported at 2014-Oct-24 22:19 UTC. Time now 2014-Oct-25 07:47 UTC.
Position N 26°46' W 080°03'.

Length 202 m; draft 6.1 m.

Type: Passenger vessel. MMSI: 311011300.

Date/timePositionNaut miles runAvg speedWind from/ knotsBaromVisibWave heightAir tempDewpointWater temp
2014-Oct-24 22:19N 26°46' W 080°03'0 0.0
2014-Oct-24 21:13N 26°46' W 080°03'0 0.0
2014-Oct-24 20:31N 26°46' W 080°03'2 0.2
2014-Oct-24 10:33N 26°45' W 080°01'9 9.4
2014-Oct-24 09:33N 26°40' W 079°53'5 4.8
2014-Oct-24 08:34N 26°38' W 079°48'7 7.3
2014-Oct-24 07:33N 26°34' W 079°41'9 8.7
2014-Oct-24 06:33N 26°28' W 079°34'20 0.7
2014-Oct-23 00:28N 26°42' W 079°51'12 5.8
2014-Oct-22 22:22N 26°46' W 080°03'0 0.0
2014-Oct-22 20:25N 26°46' W 080°03'0 0.0
2014-Oct-22 19:28N 26°46' W 080°03'0 0.0
2014-Oct-22 18:22N 26°46' W 080°03'0 0.0
2014-Oct-22 17:22N 26°46' W 080°03'0 0.0
2014-Oct-22 16:25N 26°46' W 080°03'0 0.0
2014-Oct-22 15:31N 26°46' W 080°03'0 0.0
2014-Oct-22 14:28N 26°46' W 080°03'0 0.0
2014-Oct-22 13:31N 26°46' W 080°03'0 0.0
2014-Oct-22 12:31N 26°46' W 080°03'0 0.0
2014-Oct-22 11:19N 26°46' W 080°03'2 2.9
2014-Oct-22 10:33N 26°46' W 080°01'8 8.0
2014-Oct-22 09:33N 26°41' W 079°54'8 7.5
2014-Oct-22 08:33N 26°38' W 079°46'7 6.5
2014-Oct-22 07:32N 26°35' W 079°39'6 5.5
2014-Oct-22 06:32N 26°34' W 079°33'12 0.4
2014-Oct-21 02:11N 26°42' W 079°44'2 2.5
2014-Oct-21 01:19N 26°44' W 079°45'16 5.8
2014-Oct-20 22:33N 26°46' W 080°02'1 0.2
2014-Oct-20 18:33N 26°46' W 080°03'0 0.0
2014-Oct-20 17:09N 26°46' W 080°03'0 0.0
2014-Oct-20 16:18N 26°46' W 080°03'0 0.0
2014-Oct-20 15:21N 26°46' W 080°03'0 0.0
2014-Oct-20 14:33N 26°46' W 080°03'0 0.0
2014-Oct-20 13:21N 26°46' W 080°03'0 0.0
2014-Oct-20 12:33N 26°46' W 080°03'0 0.0
2014-Oct-20 11:33N 26°46' W 080°03'2 2.4
2014-Oct-20 10:32N 26°45' W 080°01'8 8.6
2014-Oct-20 09:33N 26°41' W 079°53'7 7.1
2014-Oct-20 08:33N 26°39' W 079°45'7 7.3
2014-Oct-20 07:32N 26°37' W 079°37'14 0.4
2014-Oct-19 00:29N 26°45' W 079°50'11 6.0
2014-Oct-18 22:33N 26°46' W 080°03'0 0.2
2014-Oct-18 20:26N 26°46' W 080°03'0 0.0
2014-Oct-18 19:34N 26°46' W 080°03'0 0.0
2014-Oct-18 17:15N 26°46' W 080°03'0 0.0
2014-Oct-18 16:33N 26°46' W 080°03'0 0.0
2014-Oct-18 15:32N 26°46' W 080°03'0 0.0
2014-Oct-18 14:25N 26°46' W 080°03'0 0.0
2014-Oct-18 13:32N 26°46' W 080°03'0 0.0
2014-Oct-18 12:33N 26°46' W 080°03'0 0.0
2014-Oct-18 11:33N 26°46' W 080°03'5 4.9
2014-Oct-18 10:33N 26°44' W 079°58'7 6.8
2014-Oct-18 09:34N 26°40' W 079°52'7 6.6
2014-Oct-18 08:33N 26°37' W 079°45'7 6.9
2014-Oct-18 07:33N 26°35' W 079°38'19 0.6
2014-Oct-17 00:08N 26°46' W 079°56'8 0.6
2014-Oct-16 09:29N 26°39' W 079°51'6 6.5
2014-Oct-16 08:33N 26°36' W 079°45'7 6.6
2014-Oct-16 07:33N 26°32' W 079°39'6 5.8
2014-Oct-16 06:31N 26°30' W 079°33'30 1.0
2014-Oct-14 23:06N 26°47' W 080°01'  

Dump ship's entire track history